(297324) = 1999 TU213

Discovered at Socorro on 1999-10-15 by LINEAR.

Orbit

Orbit type: Main Belt

Note: WebGL enabled browser required.

epoch2023-09-13.0
epoch JD2460200.5
perihelion date2019-10-28.15868
perihelion JD2458784.65868
argument of perihelion (°)314.62182
ascending node (°)36.49931
inclination (°)1.63367
eccentricity0.2701058
perihelion distance (AU)1.8524212
Tisserand w.r.t. Jupiter3.4
ΔV w.r.t. Earth (km/sec)8.6
semimajor axis (AU)2.5379313
mean anomaly (°)345.14264
mean daily motion (°/day)0.24377210
aphelion distance (AU)3.223
period (years)4.04
P-vector [x]0.98784478
P-vector [y]-0.13332478
P-vector [z]-0.07991990
Q-vector [x]0.15451579
Q-vector [y]0.89831153
Q-vector [z]0.41129219
absolute magnitude17.62
phase slope0.15
uncertainty0
referenceMPEC 2024-A48
observations used429
oppositions12
arc length (days)10192
first opposition used1995
last opposition used2023
residual rms (arc-secs)0.75
perturbers coarse indicatorM-v
perturbers precise indicator003Ek
first observation date used1995-11-17.0
last observation date used2023-10-13.0
computer nameMPCLINUX
JD of orbit computation2455872.638724
perihelion JD uncertainty (days)1.8206E-04
argument of perihelion uncertainty (°)2.1861E-04
ascending node uncertainty (°)2.0296E-04
inclination uncertainty (°)1.0214E-05
eccentricity uncertainty 5.3049E-07
perihelion distance uncertainty (AU)1.3746E-06
Minimum Orbit Intersection Distances (in AU)
for orbit epoch: 2460200.5, reference: E2024-A48
Mercury1.47437
Venus1.1262
Earth0.84651
Mars0.46521
Jupiter2.20158
Saturn6.13564
Uranus15.2252
Neptune27.3321

Observations

435 total observations over interval: 1995 11 17.12995 – 2023 10 13.282049
These data are available for download (format description).

Date (UT) J2000 RA J2000 Dec Magn Location Ref
1995 11 17.12995 01 33 29.31 +09 54 36.9 19.5 V 691 – Steward Observatory, Kitt Peak-Spacewatch MPS 23709
1995 11 17.15114 01 33 28.80 +09 54 35.8   691 – Steward Observatory, Kitt Peak-Spacewatch MPS 23709
1995 11 17.17366 01 33 28.22 +09 54 34.5   691 – Steward Observatory, Kitt Peak-Spacewatch MPS 23709
1995 11 23.13339 01 31 50.06 +09 52 15.0 20.0 V 691 – Steward Observatory, Kitt Peak-Spacewatch MPS 79610
1995 11 23.15446 01 31 49.78 +09 52 15.1 20.3 V 691 – Steward Observatory, Kitt Peak-Spacewatch MPS 79610
1995 11 23.17558 01 31 49.50 +09 52 15.2 20.0 V 691 – Steward Observatory, Kitt Peak-Spacewatch MPS 79610
1999 10 02.27406 01 18 01.63 +06 48 18.0 19.5 R 703 – Catalina Sky Survey MPS 16554
1999 10 02.28630 01 18 01.02 +06 48 14.0 18.6 R 703 – Catalina Sky Survey MPS 16554
1999 10 02.29858 01 18 00.41 +06 48 12.8 18.6 R 703 – Catalina Sky Survey MPS 16554
1999 10 02.31086 01 17 59.73 +06 48 10.0 18.8 R 703 – Catalina Sky Survey MPS 16554
1999 10 09.29853 01 12 22.04 +06 24 53.8 19.4   704 – Lincoln Laboratory ETS, New Mexico MPS 15391
1999 10 09.32490 01 12 20.71 +06 24 47.5 19.3   704 – Lincoln Laboratory ETS, New Mexico MPS 15391
1999 10 09.33837 01 12 19.96 +06 24 44.8 19.7   704 – Lincoln Laboratory ETS, New Mexico MPS 15391
1999 10 15.25627 01 07 27.61 +06 04 48.9 19.2   704 – Lincoln Laboratory ETS, New Mexico MPS 13933
1999 10 15.27262 01 07 26.80 +06 04 45.2 19.6   704 – Lincoln Laboratory ETS, New Mexico MPS 13933
1999 10 15.28951 01 07 25.95 +06 04 42.1 19.4   704 – Lincoln Laboratory ETS, New Mexico MPS 13933
1999 10 15.32247 01 07 24.21 +06 04 35.9 19.8   704 – Lincoln Laboratory ETS, New Mexico MPS 13933
1999 10 19.19260 01 04 21.43 +05 52 27.0 19.3   704 – Lincoln Laboratory ETS, New Mexico MPS 13933
1999 10 19.20637 01 04 20.65 +05 52 26.1 18.9   704 – Lincoln Laboratory ETS, New Mexico MPS 13933
1999 10 19.22009 01 04 19.98 +05 52 23.9 19.5   704 – Lincoln Laboratory ETS, New Mexico MPS 13933
1999 10 19.23391 01 04 19.41 +05 52 21.1 19.2   704 – Lincoln Laboratory ETS, New Mexico MPS 13933
1999 10 19.24770 01 04 18.66 +05 52 18.1 19.2   704 – Lincoln Laboratory ETS, New Mexico MPS 13933
1999 11 09.13766 00 53 09.91 +05 18 18.0 19.6   704 – Lincoln Laboratory ETS, New Mexico MPS 16554
1999 11 09.15204 00 53 09.55 +05 18 17.2 20.0   704 – Lincoln Laboratory ETS, New Mexico MPS 16554
1999 11 09.16641 00 53 09.32 +05 18 18.1 20.4   704 – Lincoln Laboratory ETS, New Mexico MPS 16554
1999 11 09.18081 00 53 09.09 +05 18 18.1 20.5   704 – Lincoln Laboratory ETS, New Mexico MPS 16554
1999 11 09.19518 00 53 08.72 +05 18 18.2 20.8   704 – Lincoln Laboratory ETS, New Mexico MPS 16554
1999 11 30.13922 00 55 17.76 +06 00 03.6 20.9 V 691 – Steward Observatory, Kitt Peak-Spacewatch MPS 16554
1999 11 30.16023 00 55 18.23 +06 00 08.6 21.2 V 691 – Steward Observatory, Kitt Peak-Spacewatch MPS 16554
1999 11 30.18115 00 55 18.73 +06 00 13.2 21.1 V 691 – Steward Observatory, Kitt Peak-Spacewatch MPS 16554
2003 09 17.41850 00 41 47.21 +02 18 20.5 20.2 V 691 – Steward Observatory, Kitt Peak-Spacewatch MPS 84456
2003 09 17.44578 00 41 46.06 +02 18 16.2 19.4 V 691 – Steward Observatory, Kitt Peak-Spacewatch MPS 84456
2003 09 17.47319 00 41 44.92 +02 18 11.8 19.5 V 691 – Steward Observatory, Kitt Peak-Spacewatch MPS 84456
2003 09 18.30287 00 41 13.24 +02 15 42.8 19.7 R 683 – Goodricke-Pigott Observatory, Tucson MPS 85030
2003 09 18.31715 00 41 12.76 +02 15 40.0 19.9 R 683 – Goodricke-Pigott Observatory, Tucson MPS 85030
2003 09 18.33054 00 41 12.00 +02 15 37.4 20.4 R 683 – Goodricke-Pigott Observatory, Tucson MPS 85030
2003 09 19.30045 00 40 33.36 +02 12 40.1 19.2   704 – Lincoln Laboratory ETS, New Mexico MPS 85030
2003 09 19.30145 00 40 33.52 +02 12 39.3 20.0 R 683 – Goodricke-Pigott Observatory, Tucson MPS 85030
2003 09 19.31291 00 40 32.83 +02 12 38.2 19.1   704 – Lincoln Laboratory ETS, New Mexico MPS 85030
2003 09 19.31486 00 40 32.90 +02 12 37.1 21.5 R 683 – Goodricke-Pigott Observatory, Tucson MPS 85030
2003 09 19.32824 00 40 32.28 +02 12 35.7 20.0 R 683 – Goodricke-Pigott Observatory, Tucson MPS 85030
2003 09 19.33706 00 40 31.63 +02 12 32.3 19.1   704 – Lincoln Laboratory ETS, New Mexico MPS 85030
2003 09 19.34935 00 40 31.14 +02 12 31.1 19.0   704 – Lincoln Laboratory ETS, New Mexico MPS 85030
2003 09 19.51654 00 40 24.29 +02 12 02.5 20.4   608 – Haleakala-AMOS MPS 85030
2003 09 19.52708 00 40 23.80 +02 12 00.1 20.0   608 – Haleakala-AMOS MPS 85030
2003 09 19.53808 00 40 23.34 +02 11 58.1 20.3   608 – Haleakala-AMOS MPS 85030
2003 09 20.28240 00 39 53.18 +02 09 34.4 19.7 R 333 – Desert Eagle Observatory MPS 85030
2003 09 20.29473 00 39 52.54 +02 09 32.2 19.8 R 683 – Goodricke-Pigott Observatory, Tucson MPS 86047
2003 09 20.30814 00 39 51.88 +02 09 29.7 20.3 R 683 – Goodricke-Pigott Observatory, Tucson MPS 86047
2003 09 20.32152 00 39 51.28 +02 09 27.3 20.1 R 683 – Goodricke-Pigott Observatory, Tucson MPS 86047
2003 09 20.32262 00 39 51.33 +02 09 27.7 19.9 R 333 – Desert Eagle Observatory MPS 85030
2003 09 20.36067 00 39 49.62 +02 09 20.1 19.8 R 333 – Desert Eagle Observatory MPS 85030
2003 09 21.29251 00 39 10.63 +02 06 21.9 20.2 R 683 – Goodricke-Pigott Observatory, Tucson MPS 86047
2003 09 21.30590 00 39 10.10 +02 06 16.7 21.1 R 683 – Goodricke-Pigott Observatory, Tucson MPS 86047
2003 09 21.31929 00 39 09.38 +02 06 15.3 20.4 R 683 – Goodricke-Pigott Observatory, Tucson MPS 86047
2003 09 22.02632 00 38 38.95 +02 03 54.8 18.4 R 106 – Crni Vrh MPS 85030
2003 09 22.04097 00 38 38.25 +02 03 51.9 18.6 R 106 – Crni Vrh MPS 85030
2003 09 22.05826 00 38 37.47 +02 03 47.8 18.1 R 106 – Crni Vrh MPS 85030
2003 09 22.29025 00 38 27.85 +02 03 04.7 19.5 R 683 – Goodricke-Pigott Observatory, Tucson MPS 86047
2003 09 22.30366 00 38 27.17 +02 03 01.7 19.7 R 683 – Goodricke-Pigott Observatory, Tucson MPS 86047
2003 09 22.31702 00 38 26.44 +02 02 59.6 19.8 R 683 – Goodricke-Pigott Observatory, Tucson MPS 86047
2003 09 22.32146 00 38 26.25 +02 02 58.7 18.7 R 699 – Lowell Observatory-LONEOS MPS 85030
2003 09 22.33803 00 38 25.52 +02 02 53.9   699 – Lowell Observatory-LONEOS MPS 85030
2003 09 22.35473 00 38 24.74 +02 02 51.8   699 – Lowell Observatory-LONEOS MPS 85030
2003 09 22.37122 00 38 23.95 +02 02 48.1   699 – Lowell Observatory-LONEOS MPS 85030
2003 09 26.23228 00 35 31.28 +01 49 46.5 19.6   704 – Lincoln Laboratory ETS, New Mexico MPS 86047
2003 09 26.24479 00 35 30.65 +01 49 43.2 19.6   704 – Lincoln Laboratory ETS, New Mexico MPS 86047
2003 09 26.25744 00 35 30.04 +01 49 40.7 19.3   704 – Lincoln Laboratory ETS, New Mexico MPS 86047
2003 09 26.27009 00 35 29.37 +01 49 37.5 19.2   704 – Lincoln Laboratory ETS, New Mexico MPS 86047
2003 09 26.27694 00 35 29.19 +01 49 36.0 19.8 R 683 – Goodricke-Pigott Observatory, Tucson MPS 86047
2003 09 26.28272 00 35 28.77 +01 49 35.1 19.3   704 – Lincoln Laboratory ETS, New Mexico MPS 86047
2003 09 26.29036 00 35 28.41 +01 49 35.2 20.3 R 683 – Goodricke-Pigott Observatory, Tucson MPS 86047
2003 09 26.30369 00 35 27.72 +01 49 31.5 19.8 R 683 – Goodricke-Pigott Observatory, Tucson MPS 86047
2003 09 27.27474 00 34 43.14 +01 46 09.6 19.3 R 683 – Goodricke-Pigott Observatory, Tucson MPS 87271
2003 09 27.30149 00 34 41.83 +01 46 05.9 21.0 R 683 – Goodricke-Pigott Observatory, Tucson MPS 87271
2003 09 28.27254 00 33 56.75 +01 42 45.8 19.5 R 683 – Goodricke-Pigott Observatory, Tucson MPS 86863
2003 09 28.28596 00 33 56.05 +01 42 43.6 19.8 R 683 – Goodricke-Pigott Observatory, Tucson MPS 86863
2003 09 28.29934 00 33 55.44 +01 42 39.7 21.3 R 683 – Goodricke-Pigott Observatory, Tucson MPS 86863
2003 09 29.23199 00 33 11.92 +01 39 25.9 18.9   704 – Lincoln Laboratory ETS, New Mexico MPS 86047
2003 09 29.24454 00 33 11.31 +01 39 23.5 19.1   704 – Lincoln Laboratory ETS, New Mexico MPS 86047
2003 09 29.25762 00 33 10.64 +01 39 21.1 18.6   704 – Lincoln Laboratory ETS, New Mexico MPS 86047
2003 09 29.27018 00 33 09.98 +01 39 18.2 18.9   704 – Lincoln Laboratory ETS, New Mexico MPS 86047
2003 09 29.28268 00 33 09.37 +01 39 15.5 19.0   704 – Lincoln Laboratory ETS, New Mexico MPS 86047
2003 10 01.17549 00 31 41.03 +01 32 47.9 18.1 R 699 – Lowell Observatory-LONEOS MPS 86863
